Hourly Data Report for January 10, 2018

All times are specified in Local Standard Time (LST). Add 1 hour to adjust for Daylight Saving Time where and when it is observed.

BARRIE-ORO
ONTARIO

44°29'00.000" N
79°33'00.000" W
289.00 m
6117700
71314
XBI

Download Data

Hourly Data (January 2018)
Hourly Data Report for January 10, 2018
Temp Definition
°C
Dew Point Temp Definition
°C
Rel Hum Definition
%
Wind Dir Definition
10's deg

Wind Spd Definition
km/h
Visibility Definition
km
Stn Press Definition
kPa
Hmdx Definition


Wind Chill Definition


Weather Definition


TIME
00:00 -4.6 -7.4 81 17 5   99.19   -7 LegendNANA
01:00 -3.5 -7.0 77 20 8   99.16   -7 LegendNANA
02:00 -3.4 -6.8 77 19 8   99.18   -7 LegendNANA
03:00 -3.5 -7.2 75 19 12   99.17   -8 LegendNANA
04:00 -6.2 -8.7 82 22 4   99.13   -8 LegendNANA
05:00 -7.6 -9.1 89 16 7   99.03   -11 LegendNANA
06:00 -8.7 -9.7 92 14 4   99.01   -11 LegendNANA
07:00 -11.5 -12.8 90 12 6   98.95   -15 LegendNANA
08:00 -10.5 -11.6 92 11 7   98.88   -15 LegendNANA
09:00 -6.4 -8.1 88 12 9   98.83   -11 LegendNANA
10:00 -4.6 -7.0 84 15 11   98.83   -9 LegendNANA
11:00 -3.0 -5.7 82 16 12   98.72   -7 LegendNANA
12:00 -1.7 -5.0 78 17 13   98.62   -6 LegendNANA
13:00 -0.3 -4.4 74 14 15   98.41   -5 LegendNANA
14:00 0.0 -4.7 70 12 14   98.30   -4 LegendNANA
15:00 0.5 -4.0 72 14 17   98.16     LegendNANA
16:00 0.5 -3.8 73 15 17   98.14     LegendNANA
17:00 -0.2 -1.4 91 16 14   98.13   -4 LegendNANA
18:00 0.1 -0.7 95 16 13   98.08     LegendNANA
19:00 0.6 0.0 95 15 5   98.05     LegendNANA
20:00 2.0 1.3 95 20 8   98.06     LegendNANA
21:00 2.7 1.8 93 21 11   98.03     LegendNANA
22:00 2.9 2.1 95 20 10   98.02     LegendNANA
23:00 3.3 2.4 94 20 12   98.02     LegendNANA

Notes on Data Quality.

Legend

  • E = Estimated
  • M = Missing
  • NA = Not Available
  • ‡ = Partner data that is not subject to review by the National Climate Archives
Date modified: